Time,TemperatureF,DewpointF,PressureIn,WindDirection,WindDirectionDegrees,WindSpeedMPH,WindSpeedGustMPH,Humidity,HourlyPrecipIn,Conditions,Clouds,dailyrainin,SoftwareType,DateUTC
2013-08-08 00:02:00,89.0,68.0,29.76,SE,139,3.0,7.0,50,0.00,,,0.00,,2013-08-08 05:02:00,
2013-08-08 00:11:00,88.0,68.0,29.76,SSE,149,6.0,8.0,51,0.00,,,0.00,,2013-08-08 05:11:00,
2013-08-08 00:22:00,88.0,68.0,29.76,SSE,149,6.0,8.0,51,0.00,,,0.00,,2013-08-08 05:22:00,
2013-08-08 00:33:00,88.0,68.0,29.76,SSE,149,6.0,8.0,51,0.00,,,0.00,,2013-08-08 05:33:00,
2013-08-08 00:43:00,88.0,66.0,29.78,SSE,164,3.0,9.0,49,0.00,,,0.00,,2013-08-08 05:43:00,
2013-08-08 00:52:00,88.0,66.0,29.78,SSE,156,6.0,9.0,49,0.00,,,0.00,,2013-08-08 05:52:00,
2013-08-08 01:01:00,88.0,66.0,29.78,SSE,159,5.0,8.0,48,0.00,,,0.00,,2013-08-08 06:01:00,
2013-08-08 01:12:00,88.0,66.0,29.78,SSE,159,5.0,8.0,48,0.00,,,0.00,,2013-08-08 06:12:00,
2013-08-08 01:21:00,88.0,66.0,29.78,SSE,164,5.0,9.0,49,0.00,,,0.00,,2013-08-08 06:21:00,
2013-08-08 01:32:00,88.0,66.0,29.78,SSE,164,5.0,9.0,49,0.00,,,0.00,,2013-08-08 06:32:00,
2013-08-08 01:43:00,87.0,67.0,29.78,South,173,5.0,10.0,51,0.00,,,0.00,,2013-08-08 06:43:00,
2013-08-08 01:52:00,87.0,67.0,29.78,South,173,5.0,10.0,51,0.00,,,0.00,,2013-08-08 06:52:00,
2013-08-08 02:01:00,85.0,66.0,29.77,SSE,163,5.0,10.0,54,0.01,,,0.01,,2013-08-08 07:01:00,
2013-08-08 02:12:00,85.0,67.0,29.77,SE,144,5.0,8.0,55,0.01,,,0.01,,2013-08-08 07:12:00,
2013-08-08 02:22:00,85.0,67.0,29.77,SE,144,5.0,8.0,55,0.01,,,0.01,,2013-08-08 07:22:00,
2013-08-08 02:32:00,85.0,67.0,29.77,SE,144,5.0,8.0,55,0.01,,,0.01,,2013-08-08 07:32:00,
2013-08-08 02:43:00,85.0,69.0,29.76,SE,127,5.0,10.0,58,0.01,,,0.01,,2013-08-08 07:43:00,
2013-08-08 02:53:00,84.0,68.0,29.76,SSE,168,5.0,10.0,59,0.01,,,0.01,,2013-08-08 07:53:00,
2013-08-08 03:02:00,84.0,68.0,29.76,SSE,168,5.0,10.0,59,0.01,,,0.01,,2013-08-08 08:02:00,
2013-08-08 03:11:00,84.0,69.0,29.76,South,179,5.0,8.0,60,0.00,,,0.01,,2013-08-08 08:11:00,
2013-08-08 03:22:00,84.0,69.0,29.76,South,179,5.0,8.0,60,0.00,,,0.01,,2013-08-08 08:22:00,
2013-08-08 03:32:00,84.0,69.0,29.76,South,179,5.0,8.0,60,0.00,,,0.01,,2013-08-08 08:32:00,
2013-08-08 03:43:00,84.0,69.0,29.76,South,179,5.0,8.0,60,0.00,,,0.01,,2013-08-08 08:43:00,
2013-08-08 03:53:00,84.0,69.0,29.76,South,179,5.0,8.0,60,0.00,,,0.01,,2013-08-08 08:53:00,
2013-08-08 04:01:00,82.0,69.0,29.76,SE,146,5.0,7.0,66,0.00,,,0.01,,2013-08-08 09:01:00,
2013-08-08 04:12:00,82.0,70.0,29.75,SSE,148,5.0,8.0,67,0.00,,,0.01,,2013-08-08 09:12:00,
2013-08-08 04:22:00,82.0,70.0,29.76,South,184,3.0,9.0,68,0.00,,,0.01,,2013-08-08 09:22:00,
2013-08-08 04:32:00,82.0,71.0,29.76,SSE,151,6.0,9.0,69,0.00,,,0.01,,2013-08-08 09:32:00,
2013-08-08 04:43:00,81.0,70.0,29.77,South,174,5.0,7.0,70,0.00,,,0.01,,2013-08-08 09:43:00,
2013-08-08 04:53:00,81.0,71.0,29.76,SSE,155,5.0,9.0,71,0.00,,,0.01,,2013-08-08 09:53:00,
2013-08-08 05:01:00,81.0,71.0,29.76,SSE,155,6.0,10.0,71,0.00,,,0.01,,2013-08-08 10:01:00,
2013-08-08 05:12:00,81.0,71.0,29.76,SSE,158,5.0,9.0,72,0.00,,,0.01,,2013-08-08 10:12:00,
2013-08-08 05:22:00,81.0,72.0,29.76,SSE,152,5.0,10.0,73,0.00,,,0.01,,2013-08-08 10:22:00,
2013-08-08 05:32:00,81.0,72.0,29.75,SSE,163,7.0,13.0,74,0.00,,,0.01,,2013-08-08 10:32:00,
2013-08-08 05:43:00,80.0,71.0,29.75,SSE,152,7.0,14.0,75,0.00,,,0.01,,2013-08-08 10:43:00,
2013-08-08 05:52:00,80.0,72.0,29.75,SSE,153,9.0,12.0,76,0.00,,,0.01,,2013-08-08 10:52:00,
2013-08-08 06:02:00,80.0,72.0,29.75,SSE,153,9.0,12.0,76,0.00,,,0.01,,2013-08-08 11:02:00,
2013-08-08 06:11:00,80.0,72.0,29.76,SSE,151,7.0,12.0,78,0.00,,,0.01,,2013-08-08 11:11:00,
2013-08-08 06:21:00,80.0,72.0,29.76,SSE,151,7.0,12.0,78,0.00,,,0.01,,2013-08-08 11:21:00,
2013-08-08 06:32:00,79.0,72.0,29.77,South,180,5.0,12.0,79,0.00,,,0.01,,2013-08-08 11:32:00,
2013-08-08 06:43:00,79.0,72.0,29.77,SE,144,7.0,12.0,80,0.00,,,0.01,,2013-08-08 11:43:00,
2013-08-08 06:52:00,79.0,72.0,29.78,SSE,153,7.0,12.0,80,0.00,,,0.01,,2013-08-08 11:52:00,
2013-08-08 07:01:00,79.0,72.0,29.78,SSE,156,6.0,10.0,80,0.00,,,0.01,,2013-08-08 12:01:00,
2013-08-08 07:11:00,79.0,73.0,29.78,SSE,154,5.0,13.0,81,0.00,,,0.01,,2013-08-08 12:11:00,
2013-08-08 07:21:00,79.0,73.0,29.78,SSE,154,5.0,13.0,81,0.00,,,0.01,,2013-08-08 12:21:00,
2013-08-08 07:32:00,79.0,73.0,29.78,SSE,163,6.0,13.0,81,0.00,,,0.01,,2013-08-08 12:32:00,
2013-08-08 07:43:00,79.0,73.0,29.78,SSE,163,6.0,13.0,81,0.00,,,0.01,,2013-08-08 12:43:00,
2013-08-08 07:52:00,79.0,73.0,29.79,SE,142,5.0,12.0,81,0.00,,,0.01,,2013-08-08 12:52:00,
2013-08-08 08:01:00,79.0,73.0,29.79,SE,142,5.0,12.0,81,0.00,,,0.01,,2013-08-08 13:01:00,
2013-08-08 08:11:00,79.0,73.0,29.79,SE,142,5.0,12.0,81,0.00,,,0.01,,2013-08-08 13:11:00,
2013-08-08 08:22:00,80.0,73.0,29.79,SSE,159,8.0,12.0,80,0.00,,,0.01,,2013-08-08 13:22:00,
2013-08-08 08:32:00,80.0,73.0,29.80,SE,146,10.0,16.0,80,0.00,,,0.01,,2013-08-08 13:32:00,
2013-08-08 08:43:00,80.0,73.0,29.80,SE,146,10.0,16.0,80,0.00,,,0.01,,2013-08-08 13:43:00,
2013-08-08 08:53:00,80.0,73.0,29.80,SE,146,10.0,16.0,80,0.00,,,0.01,,2013-08-08 13:53:00,
2013-08-08 09:02:00,81.0,73.0,29.80,South,173,7.0,15.0,78,0.00,,,0.01,,2013-08-08 14:02:00,
2013-08-08 09:11:00,81.0,73.0,29.80,South,173,7.0,15.0,78,0.00,,,0.01,,2013-08-08 14:11:00,
2013-08-08 09:22:00,83.0,75.0,29.80,SSE,161,9.0,13.0,76,0.00,,,0.01,,2013-08-08 14:22:00,
2013-08-08 09:32:00,83.0,75.0,29.80,SSE,161,9.0,13.0,76,0.00,,,0.01,,2013-08-08 14:32:00,
2013-08-08 09:43:00,84.0,75.0,29.81,SSW,205,5.0,13.0,74,0.00,,,0.01,,2013-08-08 14:43:00,
2013-08-08 09:53:00,85.0,75.0,29.81,SSW,209,5.0,9.0,71,0.00,,,0.01,,2013-08-08 14:53:00,
2013-08-08 10:02:00,85.0,75.0,29.81,SSW,209,5.0,9.0,71,0.00,,,0.01,,2013-08-08 15:02:00,
2013-08-08 10:11:00,85.0,75.0,29.81,SSW,209,5.0,9.0,71,0.00,,,0.01,,2013-08-08 15:11:00,
2013-08-08 10:22:00,86.0,74.0,29.82,South,185,5.0,9.0,68,0.00,,,0.01,,2013-08-08 15:22:00,
2013-08-08 10:32:00,86.0,74.0,29.82,South,185,5.0,9.0,68,0.00,,,0.01,,2013-08-08 15:32:00,
2013-08-08 10:43:00,86.0,74.0,29.82,South,185,5.0,9.0,68,0.00,,,0.01,,2013-08-08 15:43:00,
2013-08-08 10:53:00,88.0,74.0,29.82,SSW,213,5.0,10.0,63,0.00,,,0.01,,2013-08-08 15:53:00,
2013-08-08 11:01:00,89.0,73.0,29.82,SSE,164,5.0,9.0,60,0.00,,,0.01,,2013-08-08 16:01:00,
2013-08-08 11:11:00,89.0,73.0,29.82,SSE,164,5.0,9.0,60,0.00,,,0.01,,2013-08-08 16:11:00,
2013-08-08 11:22:00,89.0,73.0,29.82,SSE,164,5.0,9.0,60,0.00,,,0.01,,2013-08-08 16:22:00,
2013-08-08 11:32:00,89.0,73.0,29.82,SSE,164,5.0,9.0,60,0.00,,,0.01,,2013-08-08 16:32:00,
2013-08-08 11:42:00,92.0,73.0,29.82,South,173,5.0,10.0,55,0.00,,,0.01,,2013-08-08 16:42:00,
2013-08-08 11:52:00,92.0,73.0,29.82,South,173,5.0,10.0,55,0.00,,,0.01,,2013-08-08 16:52:00,
2013-08-08 12:02:00,93.0,72.0,29.82,South,175,5.0,9.0,51,0.00,,,0.01,,2013-08-08 17:02:00,
2013-08-08 12:11:00,94.0,73.0,29.82,West,278,5.0,9.0,51,0.00,,,0.01,,2013-08-08 17:11:00,
2013-08-08 12:21:00,94.0,73.0,29.82,West,278,5.0,9.0,51,0.00,,,0.01,,2013-08-08 17:21:00,
2013-08-08 12:32:00,94.0,71.0,29.81,SSW,211,5.0,10.0,48,0.00,,,0.01,,2013-08-08 17:32:00,
2013-08-08 12:43:00,95.0,73.0,29.81,SSE,157,4.0,8.0,49,0.00,,,0.01,,2013-08-08 17:43:00,
2013-08-08 12:52:00,95.0,71.0,29.81,SW,228,3.0,9.0,46,0.00,,,0.01,,2013-08-08 17:52:00,
2013-08-08 13:01:00,96.0,71.0,29.80,SSW,202,6.0,8.0,45,0.00,,,0.01,,2013-08-08 18:01:00,
2013-08-08 13:11:00,96.0,71.0,29.80,SSW,202,6.0,8.0,45,0.00,,,0.01,,2013-08-08 18:11:00,
2013-08-08 13:22:00,96.0,71.0,29.80,SSW,202,6.0,8.0,45,0.00,,,0.01,,2013-08-08 18:22:00,
2013-08-08 13:32:00,98.0,71.0,29.79,SW,221,5.0,10.0,42,0.00,,,0.01,,2013-08-08 18:32:00,
2013-08-08 13:43:00,98.0,71.0,29.79,SW,233,5.0,10.0,42,0.00,,,0.01,,2013-08-08 18:43:00,
2013-08-08 13:53:00,98.0,71.0,29.78,SW,235,5.0,8.0,42,0.00,,,0.01,,2013-08-08 18:53:00,
2013-08-08 14:01:00,99.0,72.0,29.78,West,266,5.0,12.0,42,0.00,,,0.01,,2013-08-08 19:01:00,
2013-08-08 14:11:00,99.0,72.0,29.78,West,266,5.0,12.0,42,0.00,,,0.01,,2013-08-08 19:11:00,
2013-08-08 14:22:00,99.0,70.0,29.78,SSW,206,6.0,12.0,40,0.00,,,0.01,,2013-08-08 19:22:00,
2013-08-08 14:32:00,99.0,70.0,29.78,SSW,210,6.0,12.0,39,0.00,,,0.01,,2013-08-08 19:32:00,
2013-08-08 14:43:00,100.0,72.0,29.78,SW,224,6.0,10.0,41,0.00,,,0.01,,2013-08-08 19:43:00,
2013-08-08 14:57:00,100.0,72.0,29.78,SW,224,6.0,10.0,41,0.00,,,0.01,,2013-08-08 19:57:00,
2013-08-08 15:11:00,100.0,71.0,29.77,SW,222,5.0,10.0,39,0.00,,,0.01,,2013-08-08 20:11:00,
2013-08-08 15:22:00,100.0,71.0,29.77,SW,222,5.0,10.0,39,0.00,,,0.01,,2013-08-08 20:22:00,
2013-08-08 15:32:00,100.0,71.0,29.77,SW,222,5.0,10.0,39,0.00,,,0.01,,2013-08-08 20:32:00,
2013-08-08 15:42:00,101.0,69.0,29.76,South,174,3.0,14.0,36,0.00,,,0.01,,2013-08-08 20:42:00,
2013-08-08 15:52:00,102.0,70.0,29.75,South,186,5.0,10.0,36,0.00,,,0.01,,2013-08-08 20:52:00,
2013-08-08 16:01:00,100.0,69.0,29.75,SW,230,3.0,10.0,37,0.00,,,0.01,,2013-08-08 21:01:00,
2013-08-08 16:13:00,100.0,69.0,29.75,SW,230,3.0,10.0,37,0.00,,,0.01,,2013-08-08 21:13:00,
2013-08-08 16:22:00,101.0,69.0,29.75,South,188,5.0,8.0,36,0.00,,,0.01,,2013-08-08 21:22:00,
2013-08-08 16:33:00,101.0,69.0,29.75,South,188,5.0,8.0,36,0.00,,,0.01,,2013-08-08 21:33:00,
2013-08-08 16:43:00,99.0,69.0,29.75,SSE,167,5.0,16.0,38,0.00,,,0.01,,2013-08-08 21:43:00,
2013-08-08 16:56:00,99.0,70.0,29.74,SSE,166,6.0,9.0,39,0.00,,,0.01,,2013-08-08 21:56:00,
2013-08-08 17:04:00,99.0,70.0,29.74,SSE,166,6.0,9.0,39,0.00,,,0.01,,2013-08-08 22:04:00,
2013-08-08 17:22:00,99.0,67.0,29.74,SSE,156,6.0,10.0,36,0.00,,,0.01,,2013-08-08 22:22:00,
2013-08-08 17:47:00,99.0,68.0,29.72,ESE,115,4.0,7.0,37,0.00,,,0.01,,2013-08-08 22:47:00,
2013-08-08 17:55:00,100.0,68.0,29.72,ESE,109,2.0,7.0,36,0.00,,,0.01,,2013-08-08 22:55:00,
2013-08-08 18:04:00,100.0,68.0,29.72,ESE,109,2.0,7.0,36,0.00,,,0.01,,2013-08-08 23:04:00,
2013-08-08 18:14:00,100.0,68.0,29.72,ESE,109,2.0,7.0,36,0.00,,,0.01,,2013-08-08 23:14:00,
2013-08-08 18:23:00,100.0,68.0,29.72,ESE,109,2.0,7.0,36,0.00,,,0.01,,2013-08-08 23:23:00,
2013-08-08 18:34:00,100.0,68.0,29.72,ESE,109,2.0,7.0,36,0.00,,,0.01,,2013-08-08 23:34:00,
2013-08-08 19:05:00,99.0,66.0,29.70,SE,141,4.0,10.0,35,0.00,,,0.01,,2013-08-09 00:05:00,
2013-08-08 19:14:00,99.0,66.0,29.70,SSW,192,3.0,8.0,35,0.00,,,0.01,,2013-08-09 00:14:00,
2013-08-08 19:24:00,98.0,66.0,29.70,SSE,161,3.0,9.0,36,0.00,,,0.01,,2013-08-09 00:24:00,
2013-08-08 19:34:00,98.0,66.0,29.70,South,172,3.0,7.0,36,0.00,,,0.01,,2013-08-09 00:34:00,
2013-08-08 19:45:00,97.0,66.0,29.70,SSE,165,2.0,5.0,36,0.00,,,0.01,,2013-08-09 00:45:00,
2013-08-08 19:53:00,97.0,67.0,29.71,SSE,159,2.0,3.0,38,0.00,,,0.01,,2013-08-09 00:53:00,
2013-08-08 20:02:00,96.0,66.0,29.71,SSE,153,2.0,7.0,38,0.00,,,0.01,,2013-08-09 01:02:00,
2013-08-08 20:13:00,96.0,66.0,29.71,SSE,153,2.0,7.0,38,0.00,,,0.01,,2013-08-09 01:13:00,
2013-08-08 20:23:00,95.0,66.0,29.72,SSE,162,2.0,3.0,39,0.00,,,0.01,,2013-08-09 01:23:00,
2013-08-08 20:33:00,95.0,66.0,29.72,SSE,148,2.0,3.0,39,0.00,,,0.01,,2013-08-09 01:33:00,
2013-08-08 20:45:00,94.0,65.0,29.73,SSE,157,1.0,3.0,39,0.00,,,0.01,,2013-08-09 01:45:00,
2013-08-08 20:59:00,94.0,67.0,29.73,SE,144,0.0,3.0,41,0.00,,,0.01,,2013-08-09 01:59:00,
2013-08-08 21:12:00,92.0,66.0,29.74,SE,144,0.0,0.0,42,0.00,,,0.01,,2013-08-09 02:12:00,
2013-08-08 21:23:00,92.0,66.0,29.75,SSE,147,0.0,0.0,42,0.00,,,0.01,,2013-08-09 02:23:00,
2013-08-08 21:35:00,91.0,65.0,29.75,SE,132,0.0,0.0,43,0.00,,,0.01,,2013-08-09 02:35:00,
2013-08-08 21:44:00,90.0,66.0,29.76,SE,139,2.0,8.0,45,0.00,,,0.01,,2013-08-09 02:44:00,
2013-08-08 21:55:00,90.0,66.0,29.76,SE,139,0.0,1.0,46,0.00,,,0.01,,2013-08-09 02:55:00,
2013-08-08 22:04:00,89.0,67.0,29.76,ESE,115,2.0,3.0,49,0.00,,,0.01,,2013-08-09 03:04:00,
2013-08-08 22:14:00,88.0,66.0,29.77,SE,132,0.0,2.0,49,0.00,,,0.01,,2013-08-09 03:14:00,
2013-08-08 22:23:00,88.0,66.0,29.77,SE,132,0.0,2.0,49,0.00,,,0.01,,2013-08-09 03:23:00,
2013-08-08 22:34:00,88.0,66.0,29.77,SE,134,2.0,3.0,49,0.00,,,0.01,,2013-08-09 03:34:00,
2013-08-08 22:44:00,87.0,67.0,29.77,SE,129,1.0,3.0,51,0.00,,,0.01,,2013-08-09 03:44:00,
2013-08-08 22:52:00,87.0,67.0,29.77,SE,129,1.0,3.0,51,0.00,,,0.01,,2013-08-09 03:52:00,
2013-08-08 23:01:00,87.0,68.0,29.77,SE,136,1.0,3.0,53,0.00,,,0.01,,2013-08-09 04:01:00,
2013-08-08 23:12:00,86.0,67.0,29.78,SE,136,0.0,0.0,53,0.00,,,0.01,,2013-08-09 04:12:00,
2013-08-08 23:22:00,86.0,67.0,29.77,SE,136,0.0,0.0,54,0.00,,,0.01,,2013-08-09 04:22:00,
2013-08-08 23:33:00,86.0,67.0,29.77,SE,136,0.0,0.0,54,0.00,,,0.01,,2013-08-09 04:33:00,
2013-08-08 23:43:00,86.0,67.0,29.77,SE,136,0.0,0.0,54,0.00,,,0.01,,2013-08-09 04:43:00,
2013-08-08 23:53:00,85.0,67.0,29.77,ESE,111,1.0,3.0,55,0.00,,,0.01,,2013-08-09 04:53:00,